shi-jia-zhuang , China , ASIA

  • Friday
    November 17

      Cloudy

      25 °F

      No wind

      3~4L 

  • Saturday
    November 18

    Sunny  Sunny

    41 °F  27 °F

    No wind  No wind

        

  • Sunday
    November 19

    Cloudy  Cloudy

    45 °F  30 °F

    South  North

        

  • Monday
    November 20

    Sunny  Sunny

    48 °F  34 °F

    South  North

        

  • Tuesday
    November 21

    Cloudy  Sunny

    52 °F  30 °F

    West  West

        

  • Wednesday
    November 22

    Sunny  Sunny

    50 °F  28 °F

    West  North

        

  • Thursday
    November 23

    Cloudy  Cloudy

    48 °F  30 °F

    South  North

        

Date   Weather Temperature Humidity Total_rain Visibility Wind
23:00 Cloudy 35°F 42.6% 0mm 999.9km Northeast  2.0m/s
02:00 Cloudy 32°F 46.7% 0mm 999.9km Northeast  1.1m/s
05:00 Cloudy 27°F 51.1% 0mm 999.9km Southwest  1.2m/s
08:00 Cloudy 25°F 46.3% 0mm 999.9km Southwest  1.4m/s
11:00 Sunny 34°F 34.5% 0mm 999.9km Southwest  1.3m/s
14:00 Sunny 41°F 34.9% 0mm 999.9km Southwest  1.3m/s
17:00 Sunny 38°F 40.3% 0mm 999.9km Southwest  2.0m/s
20:00 Sunny 33°F 31.3% 0mm 999.9km Southwest  1.6m/s
23:00 Sunny 29°F 51.8% 0mm 999.9km Southwest  1.8m/s
02:00 Sunny 29°F 55.2% 0mm 999.9km Southwest  1.6m/s
05:00 Sunny 27°F 57.5% 0mm 999.9km Southwest  1.5m/s
08:00 Sunny 27°F 54.5% 0mm 999.9km Northwest  1.1m/s
11:00 Cloudy 40°F 43.1% 0mm 999.9km Northeast  0.2m/s
14:00 Cloudy 44°F 42.5% 0mm 999.9km Southeast  0.5m/s
17:00 Cloudy 41°F 45.3% 0mm 999.9km Southwest  1.4m/s
20:00 Cloudy 38°F 39% 0mm 999.9km Southwest  1.6m/s
23:00 Cloudy 32°F 48.4% 0mm 999.9km Northwest  2.3m/s
02:00 Cloudy 31°F 51% 0mm 999.9km Northwest  2.6m/s
05:00 Cloudy 31°F 48.9% 0mm 999.9km Northwest  2.6m/s
08:00 Cloudy 34°F 48.5% 0mm 999.9km Northwest  2.7m/s
11:00 Sunny 42°F 39% 0mm 999.9km Northwest  1.5m/s
14:00 Sunny 48°F 38.2% 0mm 999.9km Southwest  1.0m/s
17:00 Sunny 45°F 42.5% 0mm 999.9km Southwest  1.9m/s
20:00 Sunny 38°F 35.9% 0mm 999.9km Southwest  2.1m/s
23:00 Sunny 36°F 60.5% 0mm 999.9km Southwest  2.3m/s
02:00 Sunny 36°F 61.5% 0mm 999.9km Southwest  2.4m/s
05:00 Sunny 34°F 63.8% 0mm 999.9km Northwest  2.4m/s
08:00 Sunny 36°F 53.7% 0mm 999.9km Northwest  2.7m/s
11:00 Cloudy 47°F 36.6% 0mm 999.9km Northwest  2.4m/s
14:00 Cloudy 51°F 33.3% 0mm 999.9km Northwest  2.6m/s
17:00 Cloudy 51°F 32.4% 0mm 999.9km Northwest  3.3m/s
20:00 Cloudy 43°F 25.5% 0mm 999.9km Northwest  3.4m/s
23:00 Sunny 32°F 55.4% 0mm 999.9km Northwest  3.3m/s
02:00 Sunny 31°F 55.5% 0mm 999.9km Northwest  3.4m/s
05:00 Sunny 34°F 58% 0mm 999.9km Northwest  2.9m/s
08:00 Sunny 35°F 54.2% 0mm 999.9km Northwest  2.4m/s
11:00 Sunny 40°F 43.9% 0mm 999.9km Northwest  3.9m/s
14:00 Sunny 47°F 43.5% 0mm 999.9km Northwest  1.0m/s
17:00 Sunny 50°F 43.1% 0mm 999.9km Northwest  3.1m/s
20:00 Sunny 41°F 39.6% 0mm 999.9km Southwest  2.0m/s
23:00 Sunny 30°F 35.2% 0mm 999.9km Northwest  4.5m/s
02:00 Sunny 29°F 54.7% 0mm 999.9km Southwest  2.2m/s
05:00 Sunny 29°F 33.2% 0mm 999.9km Northwest  4.0m/s
08:00 Sunny 34°F 32.9% 0mm 999.9km Northwest  2.7m/s
11:00 Cloudy 44°F 32.5% 0mm 999.9km Northwest  9.8m/s
14:00 Cloudy 48°F 31.4% 0mm 999.9km Northwest  2.3m/s
17:00 Cloudy 46°F 28.8% 0mm 999.9km Northwest  5.1m/s
20:00 Cloudy 36°F 26.1% 0mm 999.9km Southwest  1.1m/s
23:00 Cloudy 34°F 41.8% 0mm 999.9km Northwest  4.9m/s
02:00 Cloudy 33°F 58% 0mm 999.9km Northwest  2.7m/s
05:00 Cloudy 31°F 43.9% 0mm 999.9km Southwest  4.2m/s